#timestamp,LO_Frequency 
1483092015.3,286047000.5
1483092035.2,286046999.5
1483092055.1,286046997.1
1483092075.0,286047000.8
1483092075.9,286047000.8
1483092095.9,286046996.8
1483092115.8,286047000.6
1483092135.7,286046998.4
1483092155.6,286047002.6
1483092175.6,286046998.4
1483092195.5,286047000.0
1483092215.4,286047000.0
1483092235.3,286047000.3
1483092255.3,286046999.4
1483092275.2,286047000.7
1483092295.1,286046998.8
1483092315.0,286047000.7
1483092316.0,286047000.7
1483092335.9,286046998.7
1483092355.8,286047002.4
1483092375.7,286046999.5
1483092395.7,286046995.0
1483092415.6,286047001.2
1483092435.5,286046995.0
1483092455.4,286047000.0
1483092475.4,286047000.7
1483092495.3,286046998.9
1483092515.2,286047002.5
1483092535.1,286046997.1
1483092555.1,286046998.0
1483092556.0,286046998.0
1483092575.9,286047000.9
1483092595.8,286046995.1
1483092615.7,286046997.0
1483092635.7,286046998.8
1483092655.6,286046995.0
1483092675.5,286046999.0
1483092695.4,286046996.6
1483092715.4,286046997.0
1483092735.3,286046996.5
1483092755.2,286046998.0
1483092775.1,286046992.1
1483092795.1,286046994.6
1483092796.0,286046994.6
1483092815.0,286046995.2
1483092815.9,286046995.2
1483092835.9,286046997.2
1483092855.8,286046989.8
1483092875.7,286046985.9
1483092895.6,286046988.8
1483092915.6,286046989.0
1483092935.5,286046980.5
1483092955.4,286046984.1
1483092975.3,286046983.8
1483092995.3,286046986.1
1483093015.2,286046982.2
1483093035.1,286046989.9
1483093055.0,286046982.8
1483093055.9,286046982.8
1483093075.9,286047003.3
1483093095.8,286046987.5
1483093115.7,286046987.1
1483093135.6,286046995.2
1483093155.6,286046991.1
1483093175.5,286046992.4
1483093195.4,286047002.6
1483093215.3,286047001.0
1483093235.3,286047002.6
1483093255.2,286046997.0
1483093275.1,286047004.7
1483093295.0,286047014.3
1483093296.0,286047014.3
1483093315.9,286047007.1
1483093335.8,286047014.6
1483093355.7,286047019.8
1483093375.7,286047000.6
1483093395.6,286046997.1
1483093415.5,286046993.6
1483093435.5,286046999.9
1483093455.4,286046996.9
1483093475.3,286047003.9
1483093495.2,286047003.9
1483093515.2,286047007.6
1483093535.1,286047002.8
1483093536.0,286047002.8
1483093555.0,286046998.7
1483093555.9,286046998.7
1483093575.9,286047010.4
1483093595.8,286047009.7
1483093615.7,286047013.6
1483093635.6,286047010.4
1483093655.6,286047004.7
1483093675.5,286047006.3
1483093695.4,286047006.3
1483093715.3,286047009.1
1483093735.3,286047003.4
1483093755.2,286047003.5
1483093775.1,286047004.0
1483093795.0,286047002.9
1483093796.0,286047002.9
1483093815.9,286047006.2
1483093835.8,286047004.9
1483093855.7,286047004.6
1483093875.7,286047007.0
1483093895.6,286047006.0
1483093915.5,286046999.3
1483093935.4,286046999.6
1483093955.4,286046999.0
1483093975.3,286047002.8
1483093995.2,286047001.6
1483094015.1,286047001.6
1483094035.1,286047001.9
1483094036.0,286047001.9
1483094055.9,286046996.6
1483094075.8,286047002.2
1483094095.8,286047002.0
1483094115.7,286047001.6
1483094135.6,286047003.7
1483094155.5,286047004.0
1483094175.5,286047002.7
1483094195.4,286047002.7
1483094215.3,286046998.6
1483094235.2,286047002.3
1483094255.2,286046997.0
1483094275.1,286047000.1
1483094295.0,286047001.8
1483094295.9,286047001.8
1483094315.9,286046999.0
1483094335.8,286047001.2
1483094355.7,286047002.0
1483094375.6,286046999.9
1483094395.6,286047000.5
1483094415.5,286047000.9
1483094435.4,286047000.4
1483094455.3,286047000.4
1483094475.3,286047002.4
1483094495.2,286047002.7
1483094515.1,286047002.3
1483094535.0,286047002.7
1483094535.9,286047002.7
1483094555.9,286046997.7
1483094575.8,286046997.9
1483094595.7,286046999.5
1483094615.6,286046998.8
1483094635.6,286047001.1
1483094655.5,286047000.9
1483094675.4,286047001.3
1483094695.3,286047002.3
1483094715.3,286046998.4
1483094735.2,286046999.4
1483094755.1,286047000.7
1483094775.1,286047000.4
1483094776.0,286047000.4
1483094795.9,286047000.4
1483094815.8,286046998.6
1483094835.7,286047002.7
1483094855.7,286046998.6
1483094875.6,286047002.0
1483094895.5,286047000.0
1483094915.4,286047001.3
1483094935.4,286047002.1
1483094955.3,286046998.4
1483094975.2,286047003.8
1483094995.1,286046999.7
1483095015.1,286047000.6
1483095016.0,286047000.6
1483095035.0,286046999.2
1483095035.9,286046999.2
1483095055.9,286047001.0
1483095075.8,286047000.6
1483095095.7,286047001.1
1483095115.6,286046999.5
1483095135.6,286046998.1
1483095155.5,286047000.4
1483095175.4,286046999.8
1483095195.3,286047004.0
1483095215.3,286047000.8
1483095235.2,286046998.7
1483095255.1,286047002.3
1483095275.0,286046998.9
1483095275.9,286046998.9
1483095295.9,286047000.1
1483095315.8,286047000.9
1483095335.7,286047001.1
1483095355.6,286046998.7
1483095375.6,286047001.0
1483095395.5,286046999.5
1483095415.4,286046995.0
1483095435.3,286047001.9
1483095455.3,286046999.7
1483095475.2,286047002.3
1483095495.1,286047000.7
1483095515.0,286046998.7
1483095516.0,286046998.7
1483095535.9,286047002.6
1483095555.8,286046998.4
1483095575.7,286047000.5
1483095595.7,286047000.6
